Wind_Speed
18 18 17 16 15 14 14 13 13 13 12 11 11 10 10 9 9 9 9 9 8 8 7 6 6 6 5 5 5 4 3 3 4 4 4 5 5 5 5 5 5 4
20 18 17 17 16 15 15 14 14 13 13 12 12 11 11 11 10 9 9 9 9 9 8 8 7 7 7 6 6 6 4 5 5 4 4 5 5 5 5 6 6 5
22 20 19 18 18 17 17 15 15 14 14 13 13 13 12 12 12 11 10 10 9 9 9 9 8 8 8 7 7 7 6 6 6 5 4 5 5 5 5 6 6 7
23 22 21 20 19 18 17 17 16 15 15 15 15 14 13 12 13 13 12 11 10 10 10 10 10 9 10 9 8 8 7 7 7 7 5 5 6 6 6 6 6 6
24 23 22 21 19 19 18 18 18 17 16 16 16 16 15 15 14 14 14 13 12 11 11 11 11 10 10 10 10 9 9 8 8 8 8 7 7 7 6 6 6 6
24 23 22 21 20 20 19 19 19 18 17 17 17 17 17 17 16 15 15 15 14 13 13 12 12 11 11 11 11 11 10 9 8 9 9 9 8 8 7 7 7 7
23 23 23 21 21 21 20 20 19 19 18 18 17 17 17 18 18 17 16 15 15 15 14 13 13 12 12 12 12 11 11 10 9 9 10 9 9 9 8 8 7 8
22 22 22 22 21 22 22 21 20 20 19 19 19 19 18 18 19 19 18 17 16 16 15 14 14 14 13 12 12 12 12 11 11 11 11 10 10 10 10 9 9 9
22 22 22 22 22 22 22 22 21 21 20 20 20 20 20 19 19 19 20 19 18 17 16 15 15 15 15 14 13 13 13 12 11 11 12 11 11 11 11 11 11 11
23 23 22 23 23 23 22 23 23 22 21 22 21 21 21 21 20 20 20 20 20 19 18 17 17 16 16 15 15 14 14 14 13 12 12 12 12 12 12 12 12 12
23 23 24 24 23 23 23 23 23 23 22 23 23 22 22 21 22 21 21 21 21 21 20 20 19 18 18 17 16 16 16 15 14 13 13 13 13 13 12 12 13 13
24 23 24 25 24 24 24 23 23 23 23 23 23 24 23 22 22 22 22 22 22 22 22 22 21 20 20 19 18 18 17 16 16 15 15 14 14 14 14 13 14 14
23 24 24 25 25 24 24 24 24 24 24 23 23 24 24 24 23 23 23 24 23 23 23 23 23 22 21 21 20 20 19 18 18 17 16 16 16 16 15 15 15 15
21 23 23 23 24 24 24 24 24 24 24 23 23 23 24 25 25 24 23 23 24 24 24 24 24 24 24 23 23 22 21 20 19 19 18 17 17 17 17 17 17 17
18 20 20 21 23 23 24 25 25 24 24 24 24 24 24 24 25 25 24 24 24 24 25 25 24 25 25 25 25 24 24 23 22 21 20 19 19 19 18 18 18 18
16 17 19 21 21 22 23 24 24 25 25 25 25 24 24 24 24 25 25 25 25 25 25 25 25 26 27 28 28 26 25 25 24 24 23 22 21 20 20 20 20 20
16 17 19 20 20 21 22 22 23 24 24 25 26 26 26 25 24 25 26 25 25 25 25 25 26 26 28 30 31 30 28 25 24 24 24 24 23 23 22 22 22 22
18 16 18 21 21 20 22 23 22 22 23 24 26 26 26 26 25 25 26 26 26 26 26 26 26 27 29 31 33 34 33 29 25 24 24 24 24 24 24 24 23 24
20 19 18 20 22 22 22 22 23 23 23 24 24 25 25 25 26 25 25 26 26 26 27 27 27 27 30 32 34 35 36 34 29 25 24 24 24 24 25 25 24 24
17 22 23 21 22 23 23 23 23 23 24 24 24 24 24 24 25 25 25 25 25 26 27 27 28 28 30 33 35 35 36 36 34 29 26 26 25 24 25 25 25 25
12 17 22 22 21 22 22 24 24 23 23 23 23 23 24 24 25 25 25 25 25 25 26 27 28 29 29 32 35 37 36 36 36 32 28 27 27 26 26 25 25 25
12 14 15 15 17 20 21 21 22 22 22 22 22 22 23 23 23 24 24 25 25 25 25 26 28 29 30 32 34 36 36 36 37 34 28 26 27 27 27 27 25 25
14 14 15 15 13 14 16 18 20 20 19 19 19 20 21 22 23 23 23 23 25 25 25 26 26 27 30 32 33 35 35 36 37 33 28 26 26 26 27 27 27 28
16 16 15 14 15 15 12 14 19 19 16 15 16 17 19 20 20 21 22 23 23 25 25 26 25 26 29 31 32 34 35 37 37 32 26 25 26 26 26 27 28 30
17 17 16 14 14 16 15 10 14 17 15 13 14 18 21 20 18 20 22 22 23 24 25 26 26 26 28 30 32 34 35 37 36 31 26 25 25 25 26 27 28 29
17 17 16 15 13 12 14 14 12 13 15 15 16 20 25 25 23 23 24 25 25 24 24 26 27 27 28 29 32 34 36 38 37 30 26 26 25 24 25 26 26 28
Wind_Direction
194 196 198 200 201 201 201 200 200 199 199 199 197 198 198 197 196 194 192 190 191 195 196 197 201 204 205 202 205 209 207 210 210 203 208 218 226 234 237 232 232 243
195 196 198 201 202 202 202 201 200 200 200 199 198 198 198 198 196 197 197 196 197 199 198 200 202 205 210 208 208 211 212 217 219 211 211 224 235 236 235 234 228 227
194 196 198 201 202 202 202 201 200 201 201 199 200 200 196 196 196 198 201 201 203 204 200 203 205 206 211 210 208 214 215 215 221 223 219 226 239 244 238 235 231 217
194 196 199 203 204 203 203 202 201 201 202 200 200 201 198 197 197 199 202 202 205 207 203 205 207 206 210 212 211 216 218 216 220 224 225 228 233 244 243 236 238 228
195 196 199 203 205 205 203 204 205 203 204 204 201 201 200 200 201 199 200 201 203 207 206 204 207 207 208 210 214 218 220 220 219 220 224 230 232 237 240 237 237 235
194 196 199 201 203 205 205 206 207 206 206 206 204 203 201 202 205 202 200 202 203 206 206 205 206 208 208 209 212 218 222 222 219 218 222 229 234 236 236 236 234 233
194 194 197 201 202 204 206 206 207 208 208 207 206 207 204 202 204 204 203 204 205 206 207 206 206 208 209 209 211 216 220 225 224 222 224 226 231 237 238 236 233 232
196 196 196 200 201 203 206 207 207 207 208 208 207 208 207 205 204 205 206 206 207 208 207 208 207 208 211 210 211 214 216 221 224 222 225 228 229 234 236 236 234 234
198 198 198 200 203 205 206 208 208 207 207 208 209 207 207 208 208 207 206 206 207 208 207 208 207 207 212 213 212 214 216 220 221 219 221 226 229 232 233 233 233 234
199 200 201 203 205 207 208 209 210 208 207 208 210 210 207 207 209 209 206 204 207 208 206 208 209 208 212 216 216 215 216 219 222 221 222 224 227 230 231 233 233 233
201 202 204 206 206 209 209 210 211 210 208 208 211 214 212 208 207 208 207 204 206 208 207 207 209 211 213 216 218 218 217 219 220 221 224 225 228 230 230 232 233 234
204 206 207 208 209 210 210 210 212 211 209 208 210 213 214 212 208 207 208 207 206 208 208 208 209 211 214 217 219 220 218 220 221 221 224 226 228 231 231 232 234 234
205 208 211 210 210 213 213 212 213 213 212 210 210 212 214 215 213 209 209 209 208 209 209 209 209 211 214 216 219 221 221 221 223 224 225 226 228 231 232 233 234 235
205 210 214 214 211 212 215 216 216 215 215 213 211 211 214 216 217 214 211 209 210 211 211 210 210 212 214 215 216 220 222 223 225 226 226 227 229 232 234 235 236 237
208 213 217 219 215 211 212 216 219 217 217 217 215 214 215 216 218 218 215 212 211 212 213 213 213 213 214 214 215 217 221 224 225 226 227 229 230 232 234 236 237 239
222 219 222 222 218 214 212 214 218 219 218 219 219 219 218 217 218 220 219 216 212 212 214 214 216 217 216 215 215 215 218 223 225 225 226 227 230 232 234 235 237 239
239 225 227 227 221 217 215 214 216 218 218 218 219 221 221 220 220 221 222 221 217 214 214 216 218 220 218 217 217 218 218 220 223 225 225 225 227 229 232 234 236 238
257 237 229 230 227 221 218 217 217 217 218 218 218 219 220 220 221 221 222 224 223 220 218 219 221 222 221 219 220 222 222 221 223 225 226 226 226 228 230 232 233 236
266 251 234 229 230 226 221 220 219 217 217 217 218 218 217 218 219 221 222 223 226 228 226 225 225 224 222 221 221 224 226 226 226 228 230 230 228 228 229 230 231 233
273 257 243 234 231 229 226 222 220 219 217 217 217 217 216 217 219 221 222 223 225 229 231 232 232 229 225 222 222 224 228 229 227 227 231 234 233 231 230 230 230 230
294 270 253 242 235 233 230 226 223 223 221 220 220 219 217 218 220 221 223 224 226 228 230 232 234 234 231 227 225 225 227 229 228 227 229 233 233 233 233 232 231 230
309 302 290 273 252 241 238 236 232 229 227 226 228 228 224 221 223 224 225 225 226 227 230 233 234 234 233 231 229 228 227 227 227 226 227 230 232 232 232 233 232 231
317 314 315 316 304 277 259 253 251 248 245 240 239 240 237 231 228 228 227 228 229 228 229 232 235 235 234 233 232 229 226 225 225 224 226 229 231 231 230 231 231 231
328 322 316 320 326 323 303 264 254 263 273 269 264 266 264 256 250 245 237 232 232 232 231 232 235 235 234 233 232 230 226 225 224 223 225 228 230 230 230 230 230 230
331 330 329 324 315 322 335 315 264 258 268 270 260 259 263 268 274 271 260 249 240 236 234 234 236 239 236 233 231 229 228 226 224 222 224 228 229 229 229 229 230 230
332 331 335 335 323 320 333 328 297 270 265 257 243 240 242 244 247 251 255 257 253 246 240 237 237 239 240 237 234 231 228 226 223 221 224 227 228 229 229 229 230 230
Height
838 840 842 844 845 847 849 850 852 853 854 856 857 858 859 860 861 861 862 863 864 865 866 867 867 868 869 870 870 871 871 871 872 872 872 873 873 873 874 874 874 874
835 838 840 842 843 845 847 848 850 851 853 854 856 857 858 859 860 861 862 863 864 864 865 866 866 867 868 869 870 870 871 871 871 872 872 872 873 873 873 873 873 874
833 835 837 839 841 843 845 847 848 850 851 853 854 855 856 858 859 860 861 862 863 863 864 865 866 867 867 868 869 869 870 871 871 871 872 872 872 872 872 872 872 873
830 832 834 837 839 840 843 844 846 848 849 851 852 854 855 856 858 859 860 861 862 863 863 864 865 866 866 867 868 869 869 870 870 871 871 871 872 872 872 872 872 872
827 829 832 834 836 838 840 842 844 845 847 848 850 852 853 855 856 857 858 859 860 861 862 863 864 864 865 866 867 867 868 869 869 870 870 871 871 871 871 871 871 872
824 826 829 832 834 836 838 839 841 843 844 846 847 849 851 852 854 855 856 857 858 860 861 862 863 863 864 865 866 866 867 868 868 868 869 869 870 870 870 870 870 871
822 823 826 829 831 833 835 837 839 840 842 844 845 847 848 850 852 853 854 855 856 858 859 860 861 862 863 863 864 865 866 866 867 867 868 868 869 869 869 869 869 870
819 821 824 826 828 831 832 834 836 838 839 841 842 844 846 847 849 850 852 853 854 856 857 858 859 860 861 862 862 863 864 865 865 866 867 867 867 868 868 868 868 869
816 818 820 823 825 827 829 831 833 835 837 838 839 841 843 845 846 848 850 851 852 854 854 856 857 858 859 860 860 862 862 863 864 864 865 865 866 866 866 867 867 867
813 814 817 819 821 824 825 827 830 832 834 835 837 838 839 842 844 845 847 848 850 851 852 854 855 855 857 858 858 859 860 861 862 862 863 863 864 864 865 865 865 866
809 811 813 815 817 819 821 824 826 828 830 832 834 835 836 838 840 842 844 845 847 848 849 851 852 853 854 855 856 857 858 859 859 860 861 861 862 862 862 863 863 863
806 808 810 811 814 816 817 820 822 824 826 828 830 832 833 835 836 838 840 842 843 845 846 848 849 850 851 852 854 855 855 857 857 858 859 859 860 860 860 861 861 861
803 805 807 808 810 813 814 816 818 820 822 824 826 828 830 831 832 834 836 838 840 841 843 845 846 847 848 849 851 852 853 854 854 855 856 856 857 857 857 858 858 859
800 803 804 806 808 810 811 813 814 816 818 820 822 824 826 828 829 830 832 834 836 838 839 841 842 843 844 845 847 848 849 850 851 852 852 853 854 854 854 855 855 855
799 801 802 804 806 807 809 810 811 813 814 816 818 820 822 824 825 827 828 830 832 834 835 837 838 839 840 841 842 844 845 846 847 848 849 850 850 850 851 851 852 852
799 800 801 802 803 804 806 807 808 810 811 813 815 817 818 820 822 823 824 826 828 830 831 833 833 834 835 836 838 839 841 842 843 844 845 846 846 847 847 847 848 848
800 800 801 801 801 802 803 804 806 807 808 810 812 813 815 817 819 820 821 822 823 825 827 828 828 829 830 831 833 835 837 838 839 840 841 842 842 843 843 843 844 844
803 801 800 800 800 800 801 802 803 804 806 807 808 810 812 814 815 817 818 819 819 820 822 823 824 825 826 827 828 830 832 834 835 836 837 837 838 838 839 839 839 840
804 802 800 798 798 798 799 800 801 802 803 804 805 807 809 811 812 814 815 816 816 817 818 818 819 820 822 823 824 826 828 830 831 832 833 833 834 834 834 835 835 836
802 803 800 797 795 795 796 797 798 799 800 801 802 804 806 808 809 811 812 813 814 814 815 815 816 816 817 819 820 821 823 825 827 828 829 829 829 830 830 831 831 831
801 802 799 795 793 793 793 794 795 797 798 799 800 801 803 804 806 807 808 810 811 812 812 812 812 813 814 815 816 817 819 821 823 824 824 825 825 826 826 827 827 827
801 799 796 793 792 792 792 793 795 796 797 798 799 800 801 802 803 804 805 806 807 808 809 809 809 810 811 811 812 814 816 818 819 820 820 821 821 822 823 823 823 824
799 796 793 792 792 793 794 795 797 798 799 800 800 800 800 801 801 802 802 803 804 805 805 806 806 807 808 808 809 811 813 814 816 816 817 817 817 818 818 819 819 820
797 795 793 792 792 794 795 796 798 799 800 801 803 804 803 802 801 801 801 801 801 801 802 803 803 804 804 805 807 808 810 811 812 813 814 814 813 814 814 814 815 815
796 795 794 793 793 794 794 795 796 798 798 799 801 803 802 801 801 802 800 799 798 798 799 800 800 800 801 802 803 805 806 808 809 810 811 810 810 810 810 810 810 811
797 796 795 794 794 794 794 796 796 796 796 795 796 796 794 794 795 796 795 795 795 794 795 795 796 797 798 799 800 801 803 805 806 807 807 807 807 807 807 807 807 807